Time,TemperatureF,DewpointF,PressureIn,WindDirection,WindDirectionDegrees,WindSpeedMPH,WindSpeedGustMPH,Humidity,HourlyPrecipIn,Conditions,Clouds,dailyrainin,SolarRadiationWatts/m^2,SoftwareType,DateUTC
2013-03-08 00:10:00,41.8,39.0,29.48,NNE,18,8.0,-999.0,89,-99.99,,,0.00,0,weatherlink.com 1.10,2013-03-08 00:10:00,
2013-03-08 00:25:00,41.7,39.0,29.48,NE,44,7.0,-999.0,89,-99.99,,,0.00,0,weatherlink.com 1.10,2013-03-08 00:25:00,
2013-03-08 00:40:00,41.6,39.0,29.48,ENE,57,4.0,-999.0,89,-99.99,,,0.00,0,weatherlink.com 1.10,2013-03-08 00:40:00,
2013-03-08 00:55:00,41.5,39.0,29.48,East,80,7.0,-999.0,89,-99.99,,,0.00,0,weatherlink.com 1.10,2013-03-08 00:55:00,
2013-03-08 01:10:00,41.4,38.0,29.48,ENE,67,12.0,-999.0,89,-99.99,,,0.00,0,weatherlink.com 1.10,2013-03-08 01:10:00,
2013-03-08 01:25:00,41.4,38.0,29.48,ENE,67,11.0,-999.0,88,-99.99,,,0.00,0,weatherlink.com 1.10,2013-03-08 01:25:00,
2013-03-08 01:40:00,41.4,38.0,29.48,ENE,72,5.0,-999.0,89,-99.99,,,0.00,0,weatherlink.com 1.10,2013-03-08 01:40:00,
2013-03-08 01:55:00,41.3,38.0,29.48,NE,38,10.0,-999.0,89,-99.99,,,0.00,0,weatherlink.com 1.10,2013-03-08 01:55:00,
2013-03-08 02:10:00,41.2,38.0,29.47,ENE,74,7.0,-999.0,89,-99.99,,,0.00,0,weatherlink.com 1.10,2013-03-08 02:10:00,
2013-03-08 02:25:00,41.1,40.0,29.47,ENE,76,5.0,-999.0,94,-99.99,,,0.00,0,weatherlink.com 1.10,2013-03-08 02:25:00,
2013-03-08 02:40:00,41.0,38.0,29.47,ESE,123,7.0,-999.0,89,-99.99,,,0.00,0,weatherlink.com 1.10,2013-03-08 02:40:00,
2013-03-08 02:55:00,41.0,38.0,29.47,East,79,11.0,-999.0,89,-99.99,,,0.00,0,weatherlink.com 1.10,2013-03-08 02:55:00,
2013-03-08 03:10:00,41.0,38.0,29.46,East,82,13.0,-999.0,89,-99.99,,,0.00,0,weatherlink.com 1.10,2013-03-08 03:10:00,
2013-03-08 03:25:00,41.0,38.0,29.47,ENE,59,11.0,-999.0,89,-99.99,,,0.00,0,weatherlink.com 1.10,2013-03-08 03:25:00,
2013-03-08 03:40:00,41.0,38.0,29.46,ENE,75,5.0,-999.0,89,-99.99,,,0.00,0,weatherlink.com 1.10,2013-03-08 03:40:00,
2013-03-08 03:55:00,41.0,38.0,29.46,ENE,57,14.0,-999.0,89,-99.99,,,0.00,0,weatherlink.com 1.10,2013-03-08 03:55:00,
2013-03-08 04:10:00,40.9,38.0,29.46,ENE,67,12.0,-999.0,89,-99.99,,,0.00,0,weatherlink.com 1.10,2013-03-08 04:10:00,
2013-03-08 04:25:00,40.9,38.0,29.46,ENE,59,14.0,-999.0,89,-99.99,,,0.00,0,weatherlink.com 1.10,2013-03-08 04:25:00,
2013-03-08 04:40:00,40.9,38.0,29.47,ENE,65,13.0,-999.0,89,-99.99,,,0.00,0,weatherlink.com 1.10,2013-03-08 04:40:00,
2013-03-08 04:55:00,40.9,38.0,29.47,ENE,77,8.0,-999.0,90,-99.99,,,0.00,0,weatherlink.com 1.10,2013-03-08 04:55:00,
2013-03-08 05:10:00,40.9,38.0,29.48,NE,49,8.0,-999.0,90,-99.99,,,0.00,0,weatherlink.com 1.10,2013-03-08 05:10:00,
2013-03-08 05:25:00,40.9,38.0,29.47,NNE,24,7.0,-999.0,90,-99.99,,,0.00,0,weatherlink.com 1.10,2013-03-08 05:25:00,
2013-03-08 05:40:00,40.8,38.0,29.47,NNW,328,6.0,-999.0,90,-99.99,,,0.00,0,weatherlink.com 1.10,2013-03-08 05:40:00,
2013-03-08 05:55:00,40.8,38.0,29.47,East,80,5.0,-999.0,91,-99.99,,,0.00,0,weatherlink.com 1.10,2013-03-08 05:55:00,
2013-03-08 06:10:00,40.8,38.0,29.47,ENE,69,7.0,-999.0,91,-99.99,,,0.00,0,weatherlink.com 1.10,2013-03-08 06:10:00,
2013-03-08 06:25:00,40.8,38.0,29.48,NE,51,10.0,-999.0,91,-99.99,,,0.00,0,weatherlink.com 1.10,2013-03-08 06:25:00,
2013-03-08 06:40:00,40.8,38.0,29.47,NE,42,10.0,-999.0,91,-99.99,,,0.00,0,weatherlink.com 1.10,2013-03-08 06:40:00,
2013-03-08 06:55:00,40.9,38.0,29.47,ENE,67,8.0,-999.0,90,-99.99,,,0.00,0,weatherlink.com 1.10,2013-03-08 06:55:00,
2013-03-08 07:10:00,40.9,38.0,29.48,NNE,13,11.0,-999.0,90,-99.99,,,0.00,0,weatherlink.com 1.10,2013-03-08 07:10:00,
2013-03-08 07:25:00,41.0,38.0,29.47,North,355,4.0,-999.0,89,-99.99,,,0.00,5,weatherlink.com 1.10,2013-03-08 07:25:00,
2013-03-08 07:40:00,41.1,38.0,29.47,ENE,68,8.0,-999.0,88,-99.99,,,0.00,14,weatherlink.com 1.10,2013-03-08 07:40:00,
2013-03-08 07:55:00,41.0,38.0,29.48,North,5,3.0,-999.0,88,-99.99,,,0.00,21,weatherlink.com 1.10,2013-03-08 07:55:00,
2013-03-08 08:11:00,41.1,38.0,29.49,NE,43,7.0,-999.0,89,-99.99,,,0.00,28,weatherlink.com 1.10,2013-03-08 08:11:00,
2013-03-08 08:26:00,41.1,40.0,29.49,NE,42,10.0,-999.0,94,-99.99,,,0.00,28,weatherlink.com 1.10,2013-03-08 08:26:00,
2013-03-08 08:41:00,41.1,38.0,29.49,ENE,65,11.0,-999.0,89,-99.99,,,0.00,39,weatherlink.com 1.10,2013-03-08 08:41:00,
2013-03-08 08:56:00,41.2,38.0,29.49,NNW,338,7.0,-999.0,89,-99.99,,,0.00,47,weatherlink.com 1.10,2013-03-08 08:56:00,
2013-03-08 09:11:00,41.4,38.0,29.50,NNE,15,7.0,-999.0,89,-99.99,,,0.00,44,weatherlink.com 1.10,2013-03-08 09:11:00,
2013-03-08 09:26:00,41.5,39.0,29.50,NNE,22,10.0,-999.0,90,-99.99,,,0.00,83,weatherlink.com 1.10,2013-03-08 09:26:00,
2013-03-08 09:41:00,41.5,39.0,29.50,NNE,28,10.0,-999.0,90,-99.99,,,0.01,35,weatherlink.com 1.10,2013-03-08 09:41:00,
2013-03-08 09:56:00,41.4,39.0,29.51,NE,55,11.0,-999.0,90,-99.99,,,0.01,26,weatherlink.com 1.10,2013-03-08 09:56:00,
2013-03-08 10:11:00,41.5,39.0,29.51,NE,46,8.0,-999.0,90,-99.99,,,0.01,42,weatherlink.com 1.10,2013-03-08 10:11:00,
2013-03-08 10:26:00,41.6,39.0,29.51,North,355,6.0,-999.0,90,-99.99,,,0.01,37,weatherlink.com 1.10,2013-03-08 10:26:00,
2013-03-08 10:41:00,41.6,39.0,29.51,NE,55,8.0,-999.0,91,-99.99,,,0.01,65,weatherlink.com 1.10,2013-03-08 10:41:00,
2013-03-08 10:56:00,41.8,39.0,29.52,NE,34,13.0,-999.0,91,-99.99,,,0.01,51,weatherlink.com 1.10,2013-03-08 10:56:00,
2013-03-08 11:11:00,41.9,40.0,29.52,NE,43,4.0,-999.0,92,-99.99,,,0.02,63,weatherlink.com 1.10,2013-03-08 11:11:00,
2013-03-08 11:26:00,41.8,40.0,29.52,North,355,14.0,-999.0,92,-99.99,,,0.03,56,weatherlink.com 1.10,2013-03-08 11:26:00,
2013-03-08 11:41:00,41.9,40.0,29.53,NE,51,6.0,-999.0,92,-99.99,,,0.03,42,weatherlink.com 1.10,2013-03-08 11:41:00,
2013-03-08 11:56:00,42.0,40.0,29.53,ENE,76,3.0,-999.0,92,-99.99,,,0.03,39,weatherlink.com 1.10,2013-03-08 11:56:00,
2013-03-08 12:11:00,42.1,40.0,29.53,NE,43,8.0,-999.0,91,-99.99,,,0.03,39,weatherlink.com 1.10,2013-03-08 12:11:00,
2013-03-08 12:26:00,42.1,39.0,29.54,NE,35,4.0,-999.0,90,-99.99,,,0.03,26,weatherlink.com 1.10,2013-03-08 12:26:00,
2013-03-08 12:41:00,42.1,39.0,29.54,NE,38,9.0,-999.0,89,-99.99,,,0.03,32,weatherlink.com 1.10,2013-03-08 12:41:00,
2013-03-08 12:56:00,42.2,39.0,29.53,ENE,58,11.0,-999.0,89,-99.99,,,0.03,28,weatherlink.com 1.10,2013-03-08 12:56:00,
2013-03-08 13:11:00,42.2,39.0,29.53,NE,46,8.0,-999.0,89,-99.99,,,0.03,25,weatherlink.com 1.10,2013-03-08 13:11:00,
2013-03-08 13:26:00,42.1,39.0,29.53,NNE,33,8.0,-999.0,88,-99.99,,,0.03,18,weatherlink.com 1.10,2013-03-08 13:26:00,
2013-03-08 13:41:00,42.1,39.0,29.53,ENE,78,6.0,-999.0,88,-99.99,,,0.03,25,weatherlink.com 1.10,2013-03-08 13:41:00,
2013-03-08 13:56:00,42.2,39.0,29.54,East,79,6.0,-999.0,87,-99.99,,,0.03,49,weatherlink.com 1.10,2013-03-08 13:56:00,
2013-03-08 14:11:00,42.3,39.0,29.54,NNE,29,7.0,-999.0,87,-99.99,,,0.03,37,weatherlink.com 1.10,2013-03-08 14:11:00,
2013-03-08 14:26:00,42.3,39.0,29.54,East,86,8.0,-999.0,87,-99.99,,,0.03,39,weatherlink.com 1.10,2013-03-08 14:26:00,
2013-03-08 14:41:00,42.1,39.0,29.54,NNE,29,3.0,-999.0,88,-99.99,,,0.03,42,weatherlink.com 1.10,2013-03-08 14:41:00,
2013-03-08 14:56:00,42.1,39.0,29.54,NE,55,13.0,-999.0,88,-99.99,,,0.03,39,weatherlink.com 1.10,2013-03-08 14:56:00,
2013-03-08 15:11:00,41.9,38.0,29.54,NE,40,8.0,-999.0,87,-99.99,,,0.03,25,weatherlink.com 1.10,2013-03-08 15:11:00,
2013-03-08 15:26:00,41.9,39.0,29.54,NE,49,3.0,-999.0,88,-99.99,,,0.03,21,weatherlink.com 1.10,2013-03-08 15:26:00,
2013-03-08 15:41:00,41.7,39.0,29.55,NNE,19,9.0,-999.0,89,-99.99,,,0.03,14,weatherlink.com 1.10,2013-03-08 15:41:00,
2013-03-08 15:56:00,41.5,38.0,29.55,NE,36,5.0,-999.0,88,-99.99,,,0.03,11,weatherlink.com 1.10,2013-03-08 15:56:00,
2013-03-08 16:11:00,41.5,38.0,29.55,NNE,33,4.0,-999.0,88,-99.99,,,0.03,7,weatherlink.com 1.10,2013-03-08 16:11:00,
2013-03-08 16:26:00,41.4,38.0,29.56,NNE,33,7.0,-999.0,88,-99.99,,,0.03,5,weatherlink.com 1.10,2013-03-08 16:26:00,
2013-03-08 16:41:00,41.3,38.0,29.56,North,5,8.0,-999.0,88,-99.99,,,0.03,5,weatherlink.com 1.10,2013-03-08 16:41:00,
2013-03-08 16:56:00,41.2,38.0,29.56,ENE,57,3.0,-999.0,89,-99.99,,,0.03,0,weatherlink.com 1.10,2013-03-08 16:56:00,
2013-03-08 17:11:00,40.9,38.0,29.57,ENE,67,10.0,-999.0,89,-99.99,,,0.03,0,weatherlink.com 1.10,2013-03-08 17:11:00,
2013-03-08 17:26:00,40.9,38.0,29.58,NNE,28,7.0,-999.0,89,-99.99,,,0.03,0,weatherlink.com 1.10,2013-03-08 17:26:00,
2013-03-08 17:41:00,40.8,38.0,29.58,ENE,64,5.0,-999.0,89,-99.99,,,0.03,0,weatherlink.com 1.10,2013-03-08 17:41:00,
2013-03-08 17:56:00,40.8,38.0,29.59,ENE,66,7.0,-999.0,89,-99.99,,,0.03,0,weatherlink.com 1.10,2013-03-08 17:56:00,
2013-03-08 18:11:00,40.8,38.0,29.59,NNE,17,7.0,-999.0,89,-99.99,,,0.03,0,weatherlink.com 1.10,2013-03-08 18:11:00,
2013-03-08 18:26:00,40.8,38.0,29.60,NNE,30,5.0,-999.0,89,-99.99,,,0.03,0,weatherlink.com 1.10,2013-03-08 18:26:00,
2013-03-08 18:41:00,40.8,38.0,29.61,North,360,4.0,-999.0,89,-99.99,,,0.03,0,weatherlink.com 1.10,2013-03-08 18:41:00,
2013-03-08 18:56:00,40.7,38.0,29.61,ENE,74,5.0,-999.0,89,-99.99,,,0.03,0,weatherlink.com 1.10,2013-03-08 18:56:00,
2013-03-08 19:11:00,40.4,38.0,29.61,NE,36,6.0,-999.0,91,-99.99,,,0.05,0,weatherlink.com 1.10,2013-03-08 19:11:00,
2013-03-08 19:27:00,40.1,38.0,29.61,NNE,26,10.0,-999.0,92,-99.99,,,0.06,0,weatherlink.com 1.10,2013-03-08 19:27:00,
2013-03-08 19:42:00,40.0,38.0,29.61,ENE,62,12.0,-999.0,93,-99.99,,,0.06,0,weatherlink.com 1.10,2013-03-08 19:42:00,
2013-03-08 19:57:00,39.9,38.0,29.61,NE,36,9.0,-999.0,93,-99.99,,,0.06,0,weatherlink.com 1.10,2013-03-08 19:57:00,
2013-03-08 20:12:00,39.8,38.0,29.61,NNE,31,6.0,-999.0,93,-99.99,,,0.06,0,weatherlink.com 1.10,2013-03-08 20:12:00,
2013-03-08 20:27:00,39.8,38.0,29.61,NE,34,4.0,-999.0,93,-99.99,,,0.06,0,weatherlink.com 1.10,2013-03-08 20:27:00,
2013-03-08 20:42:00,39.7,38.0,29.61,NE,40,11.0,-999.0,93,-99.99,,,0.06,0,weatherlink.com 1.10,2013-03-08 20:42:00,
2013-03-08 20:57:00,39.7,38.0,29.61,NNE,26,6.0,-999.0,93,-99.99,,,0.06,0,weatherlink.com 1.10,2013-03-08 20:57:00,
2013-03-08 21:12:00,39.6,38.0,29.61,NE,52,12.0,-999.0,93,-99.99,,,0.06,0,weatherlink.com 1.10,2013-03-08 21:12:00,
2013-03-08 21:27:00,39.6,38.0,29.61,East,83,6.0,-999.0,93,-99.99,,,0.07,0,weatherlink.com 1.10,2013-03-08 21:27:00,
2013-03-08 21:57:00,39.5,38.0,29.62,NE,35,13.0,-999.0,94,-99.99,,,0.07,0,weatherlink.com 1.10,2013-03-08 21:57:00,
2013-03-08 22:12:00,39.5,38.0,29.62,NNE,26,5.0,-999.0,94,-99.99,,,0.07,0,weatherlink.com 1.10,2013-03-08 22:12:00,
2013-03-08 22:27:00,39.4,38.0,29.63,NNE,21,6.0,-999.0,94,-99.99,,,0.07,0,weatherlink.com 1.10,2013-03-08 22:27:00,
2013-03-08 22:42:00,39.4,38.0,29.63,NE,39,8.0,-999.0,94,-99.99,,,0.07,0,weatherlink.com 1.10,2013-03-08 22:42:00,
2013-03-08 22:57:00,39.4,38.0,29.63,NE,39,14.0,-999.0,94,-99.99,,,0.07,0,weatherlink.com 1.10,2013-03-08 22:57:00,
2013-03-08 23:12:00,39.4,38.0,29.63,ENE,64,7.0,-999.0,93,-99.99,,,0.07,0,weatherlink.com 1.10,2013-03-08 23:12:00,
2013-03-08 23:27:00,39.5,38.0,29.63,NE,35,10.0,-999.0,93,-99.99,,,0.07,0,weatherlink.com 1.10,2013-03-08 23:27:00,
2013-03-08 23:42:00,39.6,38.0,29.63,NE,44,4.0,-999.0,92,-99.99,,,0.07,0,weatherlink.com 1.10,2013-03-08 23:42:00,
2013-03-08 23:57:00,39.6,38.0,29.63,ENE,62,10.0,-999.0,92,-99.99,,,0.07,0,weatherlink.com 1.10,2013-03-08 23:57:00,